When you browse on this site, cookies collect data to enhance your experience and personalize the content and advertising you see.
Visit our Privacy Policy to learn more. By continuing to use the site, you agree to this use of cookies and data.
  • Em Portugal
  • Lista de países
  • Para 7 dias
  • Temperatura da água
  • Mapa do tempo
  • Widgets de tempo
  • user-avatar
    Iniciar Sessão

    Previsão horária em Chernyy Dor

    Hoje, 23 Janeiro, Quinta-feira

    Tempo Temperatura Precipitação Vento Pressão Humidade
    00:00 -6°C° 0.1 mm 6 m/s 732 mmHg 79%
    01:00 -8°C° 0.1 mm 6 m/s 733 mmHg 78%
    02:00 -8°C° 0.1 mm 6 m/s 734 mmHg 77%
    03:00 -8°C° 0 mm 6 m/s 734 mmHg 74%
    04:00 -8°C° 0 mm 6 m/s 734 mmHg 70%
    05:00 -8°C° 0 mm 6 m/s 734 mmHg 67%
    06:00 -8°C° 0 mm 6 m/s 735 mmHg 67%
    07:00 -9°C° 0 mm 6 m/s 736 mmHg 67%
    08:00 -9°C° 0 mm 6 m/s 736 mmHg 67%
    09:00 -8°C° 0 mm 6 m/s 737 mmHg 64%
    10:00 -8°C° 0 mm 6 m/s 737 mmHg 61%
    11:00 -8°C° 0 mm 6 m/s 737 mmHg 58%
    12:00 -6°C° 0 mm 6 m/s 737 mmHg 61%
    13:00 -6°C° 0 mm 6 m/s 738 mmHg 64%
    14:00 -6°C° 0 mm 6 m/s 738 mmHg 67%
    15:00 -6°C° 0 mm 6 m/s 738 mmHg 68%
    16:00 -6°C° 0 mm 5 m/s 738 mmHg 69%
    17:00 -5°C° 0 mm 4 m/s 738 mmHg 70%
    18:00 -5°C° 0 mm 4 m/s 738 mmHg 72%
    19:00 -5°C° 0 mm 3 m/s 738 mmHg 74%
    20:00 -5°C° 0 mm 3 m/s 738 mmHg 76%
    21:00 -5°C° 0 mm 3 m/s 738 mmHg 80%
    22:00 -5°C° 0 mm 3 m/s 737 mmHg 84%
    23:00 -5°C° 0 mm 3 m/s 737 mmHg 88%

    Amanhã, 24 Janeiro, Sexta-feira

    Tempo Temperatura Precipitação Vento Pressão Humidade
    00:00 -4°C° 0 mm 3 m/s 736 mmHg 89%
    01:00 -4°C° 0 mm 4 m/s 736 mmHg 89%
    02:00 -4°C° 0 mm 4 m/s 735 mmHg 89%
    03:00 -4°C° 0 mm 4 m/s 734 mmHg 88%
    04:00 -5°C° 0 mm 5 m/s 733 mmHg 87%
    05:00 -4°C° 0 mm 5 m/s 732 mmHg 86%
    06:00 -4°C° 0.2 mm 5 m/s 731 mmHg 89%
    07:00 -4°C° 0.2 mm 5 m/s 731 mmHg 93%
    08:00 -2°C° 0.2 mm 5 m/s 730 mmHg 96%
    09:00 -1°C° 0.2 mm 5 m/s 730 mmHg 96%
    10:00 -1°C° 0.2 mm 5 m/s 729 mmHg 96%
    11:00 0°C° 0.2 mm 5 m/s 729 mmHg 96%
    12:00 0°C° 0.1 mm 5 m/s 728 mmHg 95%
    13:00 0°C° 0.1 mm 5 m/s 728 mmHg 93%
    14:00 +1°C° 0.1 mm 5 m/s 728 mmHg 91%
    15:00 0°C° 0.3 mm 5 m/s 727 mmHg 93%
    16:00 0°C° 0.3 mm 5 m/s 727 mmHg 94%
    17:00 0°C° 0.3 mm 5 m/s 727 mmHg 96%
    18:00 -1°C° 0.2 mm 5 m/s 728 mmHg 95%
    19:00 -1°C° 0.2 mm 4 m/s 728 mmHg 93%
    20:00 -1°C° 0.2 mm 3 m/s 728 mmHg 92%
    21:00 -1°C° 0.1 mm 3 m/s 728 mmHg 93%
    22:00 -2°C° 0.1 mm 4 m/s 728 mmHg 93%
    23:00 -1°C° 0.1 mm 4 m/s 728 mmHg 93%

    Depois de amanhã, 25 Janeiro, Sábado

    Tempo Temperatura Precipitação Vento Pressão Humidade
    00:00 -1°C° 0 mm 4 m/s 728 mmHg 91%
    01:00 -2°C° 0 mm 4 m/s 728 mmHg 90%
    02:00 -2°C° 0 mm 4 m/s 728 mmHg 88%
    03:00 -2°C° 0 mm 4 m/s 728 mmHg 88%
    04:00 -2°C° 0 mm 4 m/s 727 mmHg 89%
    05:00 -3°C° 0 mm 4 m/s 727 mmHg 89%
    06:00 -2°C° 0 mm 5 m/s 727 mmHg 86%
    07:00 -2°C° 0 mm 5 m/s 727 mmHg 84%
    08:00 -3°C° 0 mm 6 m/s 727 mmHg 81%
    09:00 -3°C° 0.3 mm 6 m/s 726 mmHg 80%
    10:00 -3°C° 0.3 mm 7 m/s 726 mmHg 78%
    11:00 -4°C° 0.3 mm 8 m/s 726 mmHg 77%
    12:00 -3°C° 0.3 mm 7 m/s 726 mmHg 74%
    13:00 -3°C° 0.3 mm 7 m/s 727 mmHg 71%
    14:00 -3°C° 0.3 mm 7 m/s 727 mmHg 69%
    15:00 -3°C° 0.1 mm 6 m/s 727 mmHg 71%
    16:00 -4°C° 0.1 mm 6 m/s 727 mmHg 73%
    17:00 -4°C° 0.1 mm 6 m/s 727 mmHg 74%
    18:00 -5°C° 0.1 mm 6 m/s 728 mmHg 78%
    19:00 -5°C° 0.1 mm 6 m/s 729 mmHg 82%
    20:00 -5°C° 0.1 mm 6 m/s 730 mmHg 85%
    21:00 -5°C° 0.1 mm 6 m/s 730 mmHg 83%
    22:00 -5°C° 0.1 mm 6 m/s 731 mmHg 81%
    23:00 -5°C° 0.1 mm 6 m/s 732 mmHg 79%

    26 Janeiro, Domingo

    Tempo Temperatura Precipitação Vento Pressão Humidade
    00:00 -5°C° 0 mm 6 m/s 732 mmHg 79%
    01:00 -6°C° 0 mm 5 m/s 733 mmHg 79%
    02:00 -6°C° 0 mm 5 m/s 734 mmHg 79%
    03:00 -6°C° 0 mm 5 m/s 734 mmHg 80%
    04:00 -6°C° 0 mm 5 m/s 735 mmHg 81%
    05:00 -6°C° 0 mm 5 m/s 736 mmHg 82%
    06:00 -7°C° 0 mm 4 m/s 736 mmHg 82%
    07:00 -7°C° 0 mm 4 m/s 737 mmHg 82%
    08:00 -6°C° 0 mm 3 m/s 738 mmHg 82%
    09:00 -5°C° 0 mm 3 m/s 739 mmHg 80%
    10:00 -5°C° 0 mm 3 m/s 739 mmHg 78%
    11:00 -4°C° 0 mm 3 m/s 740 mmHg 75%
    12:00 -4°C° 0 mm 3 m/s 740 mmHg 74%
    13:00 -4°C° 0 mm 3 m/s 740 mmHg 74%
    14:00 -3°C° 0 mm 2 m/s 741 mmHg 73%
    15:00 -3°C° 0 mm 2 m/s 741 mmHg 76%
    16:00 -4°C° 0 mm 2 m/s 741 mmHg 80%
    17:00 -5°C° 0 mm 2 m/s 741 mmHg 84%
    18:00 -4°C° 0 mm 2 m/s 741 mmHg 82%
    19:00 -4°C° 0 mm 2 m/s 741 mmHg 80%
    20:00 -3°C° 0 mm 2 m/s 741 mmHg 79%
    21:00 -3°C° 0 mm 2 m/s 741 mmHg 84%
    22:00 -3°C° 0 mm 2 m/s 740 mmHg 89%
    23:00 -3°C° 0 mm 2 m/s 740 mmHg 94%

    27 Janeiro, Segunda-feira

    Tempo Temperatura Precipitação Vento Pressão Humidade
    00:00 -2°C° 0.2 mm 3 m/s 740 mmHg 95%
    01:00 -1°C° 0.2 mm 3 m/s 740 mmHg 96%
    02:00 -1°C° 0.2 mm 3 m/s 739 mmHg 97%
    03:00 0°C° 0.2 mm 3 m/s 739 mmHg 97%
    04:00 -1°C° 0.2 mm 4 m/s 739 mmHg 97%
    05:00 -1°C° 0.2 mm 4 m/s 738 mmHg 97%
    06:00 -1°C° 0.3 mm 4 m/s 738 mmHg 97%
    07:00 -1°C° 0.3 mm 4 m/s 738 mmHg 97%
    08:00 -1°C° 0.3 mm 4 m/s 738 mmHg 97%
    09:00 0°C° 0.2 mm 3 m/s 738 mmHg 97%
    10:00 0°C° 0.2 mm 3 m/s 737 mmHg 97%
    11:00 0°C° 0.2 mm 3 m/s 737 mmHg 97%
    12:00 0°C° 0.1 mm 3 m/s 737 mmHg 97%
    13:00 0°C° 0.1 mm 3 m/s 737 mmHg 97%
    14:00 -1°C° 0.1 mm 3 m/s 736 mmHg 97%
    15:00 -1°C° 0.2 mm 3 m/s 736 mmHg 97%
    16:00 -1°C° 0.2 mm 3 m/s 736 mmHg 97%
    17:00 -1°C° 0.2 mm 3 m/s 736 mmHg 97%
    18:00 -1°C° 0.3 mm 3 m/s 735 mmHg 97%
    19:00 -1°C° 0.3 mm 3 m/s 735 mmHg 97%
    20:00 -1°C° 0.3 mm 3 m/s 735 mmHg 97%
    21:00 -1°C° 0.3 mm 2 m/s 734 mmHg 97%
    22:00 -1°C° 0.3 mm 2 m/s 734 mmHg 97%
    23:00 -1°C° 0.3 mm 2 m/s 734 mmHg 97%

    28 Janeiro, Terça-feira

    Tempo Temperatura Precipitação Vento Pressão Humidade
    00:00 -1°C° 0.3 mm 2 m/s 733 mmHg 98%
    01:00 -1°C° 0.3 mm 2 m/s 733 mmHg 98%
    02:00 -1°C° 0.3 mm 2 m/s 732 mmHg 98%
    03:00 -1°C° 0.4 mm 2 m/s 732 mmHg 98%
    04:00 -1°C° 0.4 mm 2 m/s 732 mmHg 97%
    05:00 -1°C° 0.4 mm 3 m/s 732 mmHg 97%
    06:00 -1°C° 0.4 mm 2 m/s 732 mmHg 97%
    07:00 -1°C° 0.4 mm 2 m/s 732 mmHg 97%
    08:00 -1°C° 0.4 mm 2 m/s 732 mmHg 98%
    09:00 -1°C° 0.2 mm 3 m/s 733 mmHg 97%
    10:00 -1°C° 0.2 mm 3 m/s 733 mmHg 97%
    11:00 -1°C° 0.2 mm 3 m/s 734 mmHg 96%
    12:00 -1°C° 0.1 mm 3 m/s 734 mmHg 94%
    13:00 -1°C° 0.1 mm 3 m/s 734 mmHg 92%
    14:00 -1°C° 0.1 mm 3 m/s 734 mmHg 91%
    15:00 -1°C° 0 mm 3 m/s 735 mmHg 90%
    16:00 -1°C° 0 mm 2 m/s 735 mmHg 89%
    17:00 -2°C° 0 mm 2 m/s 735 mmHg 89%
    18:00 -2°C° 0 mm 2 m/s 735 mmHg 90%
    19:00 -4°C° 0 mm 3 m/s 735 mmHg 92%
    20:00 -4°C° 0 mm 3 m/s 735 mmHg 93%
    21:00 -4°C° 0 mm 3 m/s 734 mmHg 90%
    22:00 -4°C° 0 mm 4 m/s 734 mmHg 87%
    23:00 -3°C° 0 mm 4 m/s 733 mmHg 84%
    Mostrar mais